Hourly Weather Aljezur Municipality

Today, 26 February, Friday

Time Temperature Precipitation Wind Pressure Humidity
00:00 +11°C° 0.2 mm 3 mps 758 mmHg 96%
01:00 +11°C° 0.2 mm 3 mps 757 mmHg 96%
02:00 +11°C° 0.2 mm 3 mps 757 mmHg 96%
03:00 +11°C° 0.7 mm 3 mps 757 mmHg 96%
04:00 +11°C° 0.7 mm 3 mps 757 mmHg 96%
05:00 +12°C° 0 mm 3 mps 757 mmHg 97%
06:00 +12°C° 1.1 mm 3 mps 757 mmHg 96%
07:00 +12°C° 1.1 mm 4 mps 757 mmHg 95%
08:00 +12°C° 1.1 mm 4 mps 758 mmHg 94%
09:00 +13°C° 0.2 mm 4 mps 758 mmHg 93%
10:00 +13°C° 0.2 mm 4 mps 758 mmHg 92%
11:00 +13°C° 0.2 mm 4 mps 758 mmHg 91%
12:00 +14°C° 0.1 mm 4 mps 758 mmHg 88%
13:00 +14°C° 0.1 mm 4 mps 758 mmHg 85%
14:00 +15°C° 0.1 mm 4 mps 757 mmHg 82%
15:00 +16°C° 0.2 mm 3 mps 757 mmHg 85%
16:00 +14°C° 0.2 mm 3 mps 757 mmHg 88%
17:00 +14°C° 0.2 mm 2 mps 757 mmHg 91%
18:00 +14°C° 0.1 mm 2 mps 758 mmHg 92%
19:00 +13°C° 0.1 mm 2 mps 758 mmHg 93%
20:00 +12°C° 0.1 mm 2 mps 758 mmHg 95%
21:00 +12°C° 0 mm 2 mps 758 mmHg 94%
22:00 +12°C° 0 mm 2 mps 758 mmHg 94%
23:00 +12°C° 0 mm 2 mps 758 mmHg 94%

Tomorrow, 27 February, Saturday

Time Temperature Precipitation Wind Pressure Humidity
00:00 +12°C° 0 mm 2 mps 758 mmHg 93%
01:00 +10°C° 0 mm 2 mps 758 mmHg 93%
02:00 +10°C° 0 mm 2 mps 757 mmHg 93%
03:00 +10°C° 0 mm 2 mps 757 mmHg 93%
04:00 +10°C° 0 mm 2 mps 757 mmHg 93%
05:00 +10°C° 0 mm 2 mps 757 mmHg 93%
06:00 +12°C° 0 mm 2 mps 757 mmHg 90%
07:00 +13°C° 0 mm 2 mps 757 mmHg 87%
08:00 +14°C° 0 mm 2 mps 757 mmHg 83%
09:00 +16°C° 0 mm 2 mps 757 mmHg 75%
10:00 +18°C° 0 mm 1 mps 757 mmHg 66%
11:00 +20°C° 0 mm 1 mps 757 mmHg 58%
12:00 +20°C° 0 mm 1 mps 756 mmHg 58%
13:00 +19°C° 0 mm 2 mps 756 mmHg 58%
14:00 +19°C° 0 mm 2 mps 756 mmHg 58%
15:00 +19°C° 0 mm 1 mps 755 mmHg 66%
16:00 +16°C° 0 mm 1 mps 755 mmHg 73%
17:00 +15°C° 0 mm 1 mps 755 mmHg 81%
18:00 +14°C° 0 mm 1 mps 755 mmHg 83%
19:00 +13°C° 0 mm 1 mps 755 mmHg 85%
20:00 +12°C° 0 mm 1 mps 755 mmHg 87%
21:00 +12°C° 0 mm 1 mps 755 mmHg 87%
22:00 +12°C° 0 mm 1 mps 755 mmHg 87%
23:00 +12°C° 0 mm 1 mps 755 mmHg 87%

Day after tomorrow, 28 February, Sunday

Time Temperature Precipitation Wind Pressure Humidity
00:00 +12°C° 0 mm 2 mps 754 mmHg 86%
01:00 +12°C° 0 mm 2 mps 754 mmHg 85%
02:00 +12°C° 0 mm 2 mps 753 mmHg 84%
03:00 +10°C° 0 mm 2 mps 753 mmHg 86%
04:00 +10°C° 0 mm 2 mps 753 mmHg 88%
05:00 +10°C° 0 mm 2 mps 753 mmHg 91%
06:00 +12°C° 0 mm 2 mps 753 mmHg 87%
07:00 +13°C° 0 mm 2 mps 753 mmHg 83%
08:00 +14°C° 0 mm 2 mps 753 mmHg 79%
09:00 +16°C° 0 mm 2 mps 753 mmHg 72%
10:00 +17°C° 0 mm 3 mps 753 mmHg 64%
11:00 +19°C° 0 mm 3 mps 753 mmHg 57%
12:00 +19°C° 0 mm 3 mps 752 mmHg 59%
13:00 +18°C° 0 mm 3 mps 752 mmHg 60%
14:00 +18°C° 0 mm 4 mps 752 mmHg 62%
15:00 +17°C° 0 mm 3 mps 751 mmHg 68%
16:00 +16°C° 0 mm 3 mps 751 mmHg 74%
17:00 +15°C° 0 mm 2 mps 751 mmHg 81%
18:00 +14°C° 0 mm 2 mps 751 mmHg 84%
19:00 +13°C° 0 mm 2 mps 752 mmHg 87%
20:00 +12°C° 0 mm 2 mps 752 mmHg 90%
21:00 +10°C° 0 mm 2 mps 752 mmHg 90%
22:00 +10°C° 0 mm 2 mps 752 mmHg 90%
23:00 +10°C° 0 mm 2 mps 752 mmHg 90%

1 March, Monday

Time Temperature Precipitation Wind Pressure Humidity
00:00 +10°C° 0 mm 2 mps 752 mmHg 90%
01:00 +10°C° 0 mm 2 mps 752 mmHg 90%
02:00 +10°C° 0 mm 2 mps 752 mmHg 90%
03:00 +10°C° 0 mm 2 mps 752 mmHg 90%
04:00 +10°C° 0 mm 2 mps 751 mmHg 90%
05:00 +10°C° 0 mm 2 mps 751 mmHg 90%
06:00 +12°C° 0 mm 2 mps 752 mmHg 85%
07:00 +13°C° 0 mm 2 mps 752 mmHg 80%
08:00 +15°C° 0 mm 1 mps 752 mmHg 75%
09:00 +16°C° 0 mm 2 mps 753 mmHg 68%
10:00 +18°C° 0 mm 2 mps 753 mmHg 61%
11:00 +20°C° 0 mm 2 mps 753 mmHg 54%
12:00 +19°C° 0.1 mm 2 mps 753 mmHg 57%
13:00 +19°C° 0.1 mm 2 mps 753 mmHg 61%
14:00 +18°C° 0.1 mm 2 mps 753 mmHg 65%
15:00 +17°C° 0.1 mm 2 mps 753 mmHg 70%
16:00 +16°C° 0.1 mm 2 mps 753 mmHg 75%
17:00 +15°C° 0.1 mm 2 mps 753 mmHg 80%
18:00 +14°C° 0 mm 2 mps 754 mmHg 83%
19:00 +12°C° 0 mm 3 mps 754 mmHg 86%
20:00 +11°C° 0 mm 3 mps 755 mmHg 88%
21:00 +11°C° 0 mm 3 mps 755 mmHg 89%
22:00 +10°C° 0 mm 3 mps 755 mmHg 90%
23:00 +10°C° 0 mm 3 mps 755 mmHg 91%

2 March, Tuesday

Time Temperature Precipitation Wind Pressure Humidity
00:00 +10°C° 0 mm 3 mps 755 mmHg 90%
01:00 +10°C° 0 mm 3 mps 755 mmHg 89%
02:00 +10°C° 0 mm 3 mps 755 mmHg 88%
03:00 +10°C° 0 mm 3 mps 755 mmHg 88%
04:00 +9°C° 0 mm 3 mps 755 mmHg 89%
05:00 +9°C° 0 mm 3 mps 755 mmHg 89%
06:00 +10°C° 0 mm 3 mps 756 mmHg 86%
07:00 +12°C° 0 mm 3 mps 756 mmHg 82%
08:00 +13°C° 0 mm 3 mps 757 mmHg 78%
09:00 +16°C° 0 mm 3 mps 757 mmHg 72%
10:00 +18°C° 0 mm 3 mps 757 mmHg 65%
11:00 +20°C° 0 mm 3 mps 758 mmHg 58%
12:00 +20°C° 0 mm 3 mps 757 mmHg 58%
13:00 +20°C° 0 mm 3 mps 757 mmHg 59%
14:00 +20°C° 0 mm 3 mps 757 mmHg 59%
15:00 +19°C° 0.1 mm 3 mps 757 mmHg 67%
16:00 +17°C° 0.1 mm 3 mps 757 mmHg 75%
17:00 +16°C° 0.1 mm 3 mps 757 mmHg 83%
18:00 +14°C° 0 mm 3 mps 757 mmHg 86%
19:00 +13°C° 0 mm 3 mps 758 mmHg 89%
20:00 +12°C° 0 mm 3 mps 758 mmHg 92%
21:00 +12°C° 0 mm 3 mps 758 mmHg 91%
22:00 +11°C° 0 mm 3 mps 758 mmHg 91%
23:00 +11°C° 0 mm 3 mps 758 mmHg 90%

3 March, Wednesday

Time Temperature Precipitation Wind Pressure Humidity
00:00 +11°C° 0 mm 3 mps 758 mmHg 90%
01:00 +12°C° 0 mm 2 mps 758 mmHg 90%
02:00 +12°C° 0 mm 2 mps 758 mmHg 90%
03:00 +11°C° 0 mm 3 mps 757 mmHg 89%
04:00 +11°C° 0 mm 3 mps 757 mmHg 89%
05:00 +11°C° 0 mm 3 mps 757 mmHg 88%
06:00 +12°C° 0 mm 3 mps 758 mmHg 84%
07:00 +13°C° 0 mm 3 mps 758 mmHg 81%
08:00 +14°C° 0 mm 3 mps 758 mmHg 78%
09:00 +17°C° 0 mm 3 mps 758 mmHg 73%
10:00 +18°C° 0 mm 3 mps 758 mmHg 68%
11:00 +20°C° 0 mm 3 mps 759 mmHg 64%
12:00 +20°C° 0 mm 4 mps 758 mmHg 63%
13:00 +20°C° 0 mm 4 mps 758 mmHg 63%
14:00 +20°C° 0 mm 4 mps 758 mmHg 62%
15:00 +18°C° 0 mm 4 mps 758 mmHg 68%
16:00 +17°C° 0 mm 3 mps 757 mmHg 74%
17:00 +16°C° 0 mm 3 mps 757 mmHg 81%
18:00 +14°C° 0 mm 3 mps 757 mmHg 84%
19:00 +14°C° 0 mm 2 mps 758 mmHg 87%
20:00 +13°C° 0 mm 2 mps 758 mmHg 91%
21:00 +13°C° 0 mm 2 mps 758 mmHg 91%
22:00 +13°C° 0 mm 2 mps 758 mmHg 91%
23:00 +12°C° 0 mm 3 mps 758 mmHg 92%
Show more